PulseSat

PulseSat

GORIZONT 16 [-]

Last updated on Dec. 17, 2018, 12:08 a.m. UTC

1 19397U 88071A   18350.44668274 -.00000203  00000-0  00000+0 0  9996
2 19397  14.6088 352.1592 0015918 358.9940 174.1963  0.99968824110836
UTC
Height (km)
Latitude
Longitude
Inclination
Orbital Period

Next 30 passes for location: Hong Kong

Rise time Rise Azimuth (degrees) Set time Set Azimuth (degrees) Duration Max altitude (degrees)

No matching passes for this satellites

PulseSat

PulseSat is the new satellites software and hardware trackering solution by Pulsely.
Satellite Two Line Element Set source: US Air Force Space Command

Download PulseSat for iOS
© 2017 Pulsely Limited